Location: *
(49.6619°S, 177.4603°W)
Time: 05:26:00
(UTC+00:00)

Cosmos 1536 - Pass Details

Date: 31 January 2023
Orbit: 530 x 553 km, 82.5° (Epoch: 01 April)

Event Time Altitude Azimuth Distance (km) Brightness Sun altitude
Rises 11:40:49 0° 190° (S) 2,729 7.9 -22.8°
Reaches altitude 10° 11:43:00 10° 190° (S) 1,832 6.6 -22.8°
Enters shadow 11:46:59 88° 177° (S) 556 2.7 -22.9°
